Middlebury State AP, Middlebu, VT

2:26 PM EST on November 21, 2019 (GMT -0500)
Middlebury State AP, Middlebu

Weather History for K6B0 - October, 2019

Change the Weather History Date:

Wednesday, October 23, 2019

  Actual Average (WUND) Record (WUND)
Temperature  
Mean Temperature 53 °F -  
Max Temperature 61 °F - - (-1)
Min Temperature 45 °F - - (-1)
Degree Days  
Heating Degree Days 12    
Growing Degree Days 3 (Base 50)    
Moisture  
Dew Point 44 °F    
Average Humidity 74    
Maximum Humidity 99    
Minimum Humidity 39    
Precipitation  
Precipitation 0.25 in - - ()
Sea Level Pressure  
Sea Level Pressure 29.89 in    
Wind  
Wind Speed 4 mph ()    
Max Wind Speed 17 mph    
Max Gust Speed 31 mph    
Visibility 8.8 miles    
Events Rain    
Averages and records for this station are not official NWS values.
T = Trace of Precipitation, MM = Missing Value Source: Averaged Metar Reports

Daily Weather History Graph

Daily Weather History Graph

Search for Another Location

Airport or City:

Astronomy

Oct. 23, 2019 Rise Set
Actual Time 7:16 AM EDT 5:56 PM EDT
Civil Twilight 6:47 AM EDT 6:25 PM EDT
Nautical Twilight 6:13 AM EDT 6:59 PM EDT
Astronomical Twilight 5:40 AM EDT 7:32 PM EDT
Moon 1:16 AM EDT (10/23) 3:58 PM EDT (10/23)
Length of Visible Light 11h 38m
Length of Day
10h 39m
Waning Crescent, 27% of the Moon is Illuminated
Oct 23
Waning Crescent
Oct 27
New
Nov 4
First Quarter
Nov 12
Full
Nov 19
Last Quarter

Hourly Weather History & Observations

Time (EDT) Temp. Dew Point Humidity Pressure Visibility Wind Dir Wind Speed Gust Speed Precip Events Conditions
12:17 AM 53.6 °F 47.3 °F 79% 29.77 in 10.0 mi SE 12.7 mph 28.8 mph N/A   Overcast
12:36 AM 53.8 °F 47.1 °F 78% 29.76 in 10.0 mi SE 13.8 mph 24.2 mph N/A   Overcast
12:55 AM 54.5 °F 46.8 °F 75% 29.76 in 10.0 mi SE 15.0 mph 31.1 mph N/A   Overcast
12:56 AM 54.5 °F 46.8 °F 75% 29.76 in 10.0 mi SE 15.0 mph 31.1 mph N/A   Overcast
1:15 AM 55.2 °F 47.3 °F 75% 29.78 in 10.0 mi WSW 17.3 mph 23.0 mph N/A   Overcast
1:57 AM 50.9 °F 50.0 °F 97% 29.83 in 4.0 mi ESE 3.5 mph - 0.11 in Rain Heavy Rain
2:16 AM 51.1 °F 50.2 °F 97% 29.83 in 5.0 mi SE 3.5 mph - 0.06 in Rain Rain
2:35 AM 51.1 °F 50.2 °F 97% 29.81 in 4.0 mi SSE 4.6 mph - 0.07 in   Heavy Drizzle
2:36 AM 51.1 °F 50.2 °F 97% 29.81 in 4.0 mi SSE 4.6 mph - 0.08 in   Heavy Drizzle
2:55 AM 52.2 °F 50.0 °F 92% 29.80 in 5.0 mi South 5.8 mph - 0.08 in   Heavy Drizzle
3:18 AM 52.0 °F 50.4 °F 94% 29.80 in 5.0 mi Calm Calm - 0.02 in Rain Heavy Rain
3:35 AM 51.8 °F 50.9 °F 97% 29.80 in 7.0 mi Calm Calm - 0.03 in Rain Rain
3:55 AM 51.4 °F 50.9 °F 98% 29.80 in 5.0 mi Calm Calm - 0.03 in   Heavy Drizzle
3:56 AM 51.4 °F 50.9 °F 98% 29.80 in 5.0 mi Calm Calm - 0.03 in   Heavy Drizzle
4:15 AM 51.8 °F 51.1 °F 97% 29.79 in 10.0 mi South 4.6 mph - 0.01 in   Light Drizzle
4:16 AM 51.8 °F 51.1 °F 97% 29.79 in 10.0 mi South 4.6 mph - 0.01 in   Light Drizzle
4:39 AM 52.2 °F 50.9 °F 95% 29.81 in 10.0 mi Calm Calm - 0.01 in   Light Drizzle
4:56 AM 51.8 °F 51.1 °F 97% 29.82 in 7.0 mi Calm Calm - 0.01 in   Drizzle
5:16 AM 51.8 °F 51.1 °F 97% 29.83 in 4.0 mi Calm Calm - 0.01 in Rain Heavy Rain
5:35 AM 51.4 °F 50.9 °F 98% 29.83 in 5.0 mi Calm Calm - 0.01 in   Drizzle
5:36 AM 51.4 °F 50.9 °F 98% 29.83 in 5.0 mi Calm Calm - 0.01 in   Drizzle
5:55 AM 51.4 °F 50.9 °F 98% 29.83 in 7.0 mi Calm Calm - 0.02 in Rain Light Rain
5:59 AM 51.3 °F 50.9 °F 99% 29.83 in 5.0 mi Calm Calm - 0.02 in Rain Light Rain
6:17 AM 51.4 °F 50.9 °F 98% 29.81 in 10.0 mi Calm Calm - N/A   Light Drizzle
6:55 AM 50.7 °F 50.2 °F 98% 29.81 in 1.5 mi Calm Calm - N/A   Overcast
6:56 AM 50.7 °F 50.2 °F 98% 29.81 in 1.5 mi Calm Calm - N/A   Overcast
7:15 AM 50.4 °F 50.0 °F 99% 29.82 in 3.0 mi Calm Calm - N/A   Overcast
7:16 AM 50.4 °F 50.0 °F 99% 29.82 in 4.0 mi Calm Calm - N/A   Overcast
7:56 AM 49.8 °F 49.3 °F 98% 29.83 in 1.0 mi Calm Calm - N/A   Overcast
8:16 AM 50.2 °F 50.0 °F 99% 29.83 in 7.0 mi Calm Calm - N/A   Overcast
8:35 AM 50.2 °F 50.0 °F 99% 29.84 in 7.0 mi Calm Calm - N/A   Overcast
8:36 AM 50.4 °F 50.0 °F 99% 29.84 in 7.0 mi Calm Calm - N/A   Overcast
8:55 AM 51.1 °F 50.7 °F 99% 29.84 in 10.0 mi Calm Calm - N/A   Overcast
9:00 AM 51.3 °F 50.9 °F 99% 29.84 in 10.0 mi Calm Calm - N/A   Overcast
9:17 AM 51.4 °F 51.1 °F 99% 29.84 in 10.0 mi Calm Calm - N/A   Mostly Cloudy
9:35 AM 52.3 °F 51.8 °F 98% 29.84 in 10.0 mi Calm Calm - N/A   Mostly Cloudy
9:55 AM 52.9 °F 51.1 °F 94% 29.84 in 10.0 mi Calm Calm - N/A   Overcast
9:56 AM 53.1 °F 51.3 °F 94% 29.84 in 10.0 mi Calm Calm - N/A   Overcast
10:15 AM 53.6 °F 51.6 °F 93% 29.85 in 10.0 mi Calm Calm - N/A   Mostly Cloudy
10:16 AM 53.8 °F 51.6 °F 92% 29.85 in 10.0 mi Calm Calm - N/A   Mostly Cloudy
10:39 AM 53.1 °F 50.2 °F 90% 29.85 in 10.0 mi Calm Calm - N/A   Mostly Cloudy
10:57 AM 54.5 °F 49.8 °F 84% 29.85 in 10.0 mi Calm Calm - N/A   Scattered Clouds
11:15 AM 55.4 °F 48.9 °F 79% 29.85 in 10.0 mi Calm Calm - N/A   Clear
11:16 AM 55.6 °F 48.9 °F 78% 29.85 in 10.0 mi Calm Calm - N/A   Clear
11:35 AM 56.1 °F 46.2 °F 69% 29.85 in 10.0 mi Calm Calm - N/A   Clear
11:36 AM 56.3 °F 46.6 °F 70% 29.85 in 10.0 mi Calm Calm - N/A   Clear
11:59 AM 56.7 °F 47.8 °F 72% 29.85 in 10.0 mi Calm Calm - N/A   Mostly Cloudy
12:17 PM 56.5 °F 48.4 °F 74% 29.84 in 10.0 mi Calm Calm - N/A   Overcast
12:35 PM 57.7 °F 48.6 °F 71% 29.84 in 10.0 mi Calm Calm - N/A   Overcast
12:55 PM 60.3 °F 46.4 °F 60% 29.85 in 10.0 mi North 6.9 mph - N/A   Overcast
12:56 PM 59.9 °F 46.6 °F 61% 29.85 in 10.0 mi North 6.9 mph - N/A   Overcast
1:15 PM 59.0 °F 45.9 °F 62% 29.85 in 10.0 mi NNW 6.9 mph - N/A   Overcast
1:16 PM 58.8 °F 45.9 °F 62% 29.85 in 10.0 mi North 6.9 mph - N/A   Overcast
1:38 PM 58.8 °F 39.0 °F 48% 29.85 in 10.0 mi West 5.8 mph 19.6 mph N/A   Mostly Cloudy
1:56 PM 57.7 °F 39.6 °F 51% 29.86 in 10.0 mi West 4.6 mph - N/A   Overcast
2:16 PM 58.8 °F 39.7 °F 49% 29.85 in 10.0 mi West 8.1 mph - N/A   Overcast
2:35 PM 59.2 °F 38.5 °F 46% 29.85 in 10.0 mi WSW 4.6 mph - N/A   Mostly Cloudy
2:36 PM 59.2 °F 38.5 °F 46% 29.85 in 10.0 mi SW 3.5 mph - N/A   Mostly Cloudy
2:55 PM 59.4 °F 37.8 °F 45% 29.86 in 10.0 mi SW 5.8 mph - N/A   Overcast
2:59 PM 59.7 °F 37.6 °F 44% 29.86 in 10.0 mi SW 8.1 mph - N/A   Overcast
3:17 PM 61.0 °F 37.2 °F 41% 29.87 in 10.0 mi West 8.1 mph - N/A   Mostly Cloudy
3:36 PM 58.8 °F 35.4 °F 42% 29.88 in 10.0 mi West 6.9 mph - N/A   Scattered Clouds
3:55 PM 58.5 °F 35.2 °F 42% 29.89 in 10.0 mi West 9.2 mph - N/A   Mostly Cloudy
3:56 PM 58.6 °F 35.1 °F 41% 29.89 in 10.0 mi West 9.2 mph - N/A   Mostly Cloudy
4:15 PM 59.5 °F 34.5 °F 39% 29.90 in 10.0 mi West 5.8 mph - N/A   Mostly Cloudy
4:16 PM 59.4 °F 34.5 °F 39% 29.90 in 10.0 mi West 4.6 mph - N/A   Scattered Clouds
4:38 PM 58.3 °F 34.0 °F 40% 29.90 in 10.0 mi West 5.8 mph - N/A   Clear
4:56 PM 57.6 °F 33.8 °F 41% 29.91 in 10.0 mi Calm Calm - N/A   Scattered Clouds
5:16 PM 56.3 °F 33.1 °F 41% 29.92 in 10.0 mi WNW 4.6 mph - N/A   Scattered Clouds
5:35 PM 55.4 °F 31.3 °F 40% 29.93 in 10.0 mi Calm Calm - N/A   Scattered Clouds
5:36 PM 55.2 °F 31.1 °F 40% 29.93 in 10.0 mi NW 3.5 mph - N/A   Scattered Clouds
5:55 PM 54.5 °F 31.5 °F 42% 29.94 in 10.0 mi NW 3.5 mph - N/A   Clear
5:59 PM 53.4 °F 32.0 °F 44% 29.94 in 10.0 mi NW 3.5 mph - N/A   Clear
6:17 PM 50.2 °F 34.5 °F 55% 29.95 in 10.0 mi Calm Calm - N/A   Clear
6:35 PM 48.6 °F 36.5 °F 63% 29.97 in 10.0 mi Calm Calm - N/A   Clear
6:55 PM 46.9 °F 36.1 °F 66% 29.98 in 10.0 mi Calm Calm - N/A   Clear
6:56 PM 46.8 °F 36.1 °F 67% 29.98 in 10.0 mi Calm Calm - N/A   Clear
7:15 PM 46.4 °F 36.5 °F 68% 29.99 in 10.0 mi Calm Calm - N/A   Mostly Cloudy
7:16 PM 46.2 °F 36.5 °F 69% 29.99 in 10.0 mi Calm Calm - N/A   Mostly Cloudy
7:39 PM 47.1 °F 37.2 °F 68% 30.01 in 10.0 mi Calm Calm - N/A   Mostly Cloudy
7:57 PM 45.9 °F 37.4 °F 72% 30.02 in 10.0 mi Calm Calm - N/A   Scattered Clouds
8:16 PM 46.6 °F 38.1 °F 72% 30.02 in 10.0 mi Calm Calm - N/A   Mostly Cloudy
8:35 PM 45.7 °F 38.5 °F 76% 30.03 in 10.0 mi Calm Calm - N/A   Mostly Cloudy
8:36 PM 45.7 °F 38.3 °F 75% 30.03 in 10.0 mi Calm Calm - N/A   Mostly Cloudy
8:55 PM 46.9 °F 40.3 °F 78% 30.04 in 10.0 mi Calm Calm - N/A   Mostly Cloudy
8:59 PM 47.3 °F 39.6 °F 74% 30.04 in 10.0 mi Calm Calm - N/A   Overcast
9:17 PM 49.6 °F 37.2 °F 62% 30.05 in 10.0 mi Calm Calm - N/A   Overcast
9:55 PM 49.5 °F 38.1 °F 65% 30.06 in 10.0 mi Calm Calm - N/A   Overcast
9:56 PM 49.5 °F 37.9 °F 65% 30.06 in 10.0 mi Calm Calm - N/A   Overcast
10:15 PM 48.9 °F 39.4 °F 70% 30.07 in 10.0 mi Calm Calm - N/A   Overcast
10:16 PM 49.1 °F 39.4 °F 69% 30.07 in 10.0 mi Calm Calm - N/A   Overcast
10:38 PM 50.4 °F 37.2 °F 61% 30.08 in 10.0 mi Calm Calm - N/A   Overcast
10:57 PM 50.2 °F 38.8 °F 65% 30.09 in 10.0 mi Calm Calm - N/A   Overcast
11:16 PM 48.4 °F 41.0 °F 76% 30.08 in 10.0 mi SE 3.5 mph - N/A   Overcast
11:35 PM 48.0 °F 40.1 °F 74% 30.09 in 10.0 mi Calm Calm - N/A   Overcast
11:36 PM 48.2 °F 40.1 °F 74% 30.09 in 10.0 mi Calm Calm - N/A   Overcast
11:55 PM 48.2 °F 38.3 °F 69% 30.09 in 10.0 mi South 4.6 mph - N/A   Overcast
11:59 PM 48.2 °F 38.1 °F 68% 30.09 in 10.0 mi South 4.6 mph - N/A   Overcast